Regional Weather Roundup
Issued by NWS

Home | Current Version | Previous Version | Graphics & Text | Print | Product List | Glossary On
Versions: 1 2 3 4 5 6 7 8 9 10 11 12 13 14 15 16 17 18 19 20 21 22 23 24 25 26 27 28 29 30 31 32 33 34 35 36 37 38 39 40 41 42 43 44 45 46 47 48 49 50
000
ASUS45 KCYS 161210
RWRWY

WYOMING REGIONAL WEATHER ROUNDUP
NATIONAL WEATHER SERVICE CHEYENNE WY
600 AM MDT WED AUG 16 2017

NOTE:  "FAIR" INDICATES FEW OR NO CLOUDS BELOW 12,000 FEET
WITH NO SIGNIFICANT WEATHER AND/OR OBSTRUCTIONS TO VISIBILITY.

WYZ001-161300-
YELLOWSTONE NATIONAL PARK

CITY           SKY/WX    TMP DP  RH WIND       PRES   REMARKS
LK YELLOWSTONE   N/A     33  33 100 NW3       30.25R
6HR MIN TEMP:  33; 6HR MAX TEMP:  39;

W YELLOWSTONE  NOT AVBL

$$
WYZ002>013-054>058-071-098>099-161300-
NORTHERN WYOMING

CITY           SKY/WX    TMP DP  RH WIND       PRES   REMARKS
JACKSON        FAIR      38  34  85 CALM      30.21R
CODY           FAIR      56  41  57 SW9       30.09R
GREYBULL       FAIR      51  48  89 SE5       30.04R
6HR MIN TEMP:  51; 6HR MAX TEMP:  60;

WORLAND        FAIR      48  46  93 SW3       30.05R
6HR MIN TEMP:  48; 6HR MAX TEMP:  57;

SHERIDAN       FAIR      45  41  86 S3        30.03S
6HR MIN TEMP:  45; 6HR MAX TEMP:  53;

BUFFALO        FAIR      53  36  52 W8        30.08S
6HR MIN TEMP:  51; 6HR MAX TEMP:  56;

GILLETTE       FAIR      52  46  80 W8        30.04S
6HR MIN TEMP:  47; 6HR MAX TEMP:  55;

HULETT         FAIR      50  46  87 S3        30.06R
NEWCASTLE      FAIR      52  46  82 N9        30.03S

$$
WYZ014>020-022>026-101>103-161300-
CENTRAL WYOMING

CITY           SKY/WX    TMP DP  RH WIND       PRES   REMARKS
BIG PINEY      FAIR      36  35  96 CALM      30.23R
6HR MIN TEMP:  36; 6HR MAX TEMP:  47;

PINEDALE       FAIR      36  36 100 NW6       30.24R WCI  31
DUBOIS         FAIR      37  34  87 NW9       30.20S WCI  31
LANDER           N/A    N/A N/A N/A MISG      30.12S
RIVERTON       FAIR      50  48  93 NW10      30.12R
6HR MIN TEMP:  49; 6HR MAX TEMP:  55;

CASPER         FAIR      47  45  93 W5        30.11S
6HR MIN TEMP:  46; 6HR MAX TEMP:  53;

DOUGLAS        FAIR      49  46  90 NW9       30.08R
6HR MIN TEMP:  49; 6HR MAX TEMP:  55;


$$
WYZ021-027>030-104>119-161300-
SOUTHERN WYOMING

CITY           SKY/WX    TMP DP  RH WIND       PRES   REMARKS
EVANSTON       FAIR      45  31  58 S3        30.20R
6HR MIN TEMP:  44; 6HR MAX TEMP:  54;

KEMMERER         N/A     41  37  87 N10       30.22R
FORT BRIDGER   FAIR      48  36  63 W5        30.24R
ROCK SPRINGS   FAIR      47  43  86 SE3       30.20R
6HR MIN TEMP:  47; 6HR MAX TEMP:  53;

RAWLINS        FAIR      45  42  89 W3        30.18S
6HR MIN TEMP:  44; 6HR MAX TEMP:  53;

SARATOGA       FAIR      45  45 100 SE5       30.20S
LARAMIE        FAIR      45  43  93 CALM      30.17R
6HR MIN TEMP:  44; 6HR MAX TEMP:  50;

CHEYENNE       FAIR      53  46  77 N7        30.10R
6HR MIN TEMP:  52; 6HR MAX TEMP:  57;

TORRINGTON     FAIR      56  52  86 NW9       30.01R
6HR MIN TEMP:  56; 6HR MAX TEMP:  60;

PINE BLUFFS    FAIR      52  50  93 NW3       30.07R

$$



USA.gov is the U.S. government's official web portal to all federal, state and local government web resources and services.